TimeCST,TemperatureF,Dew PointF,Humidity,Sea Level PressureIn,VisibilityMPH,Wind Direction,Wind SpeedMPH,Gust SpeedMPH,PrecipitationIn,Events,Conditions,WindDirDegrees,DateUTC
12:15 AM,42.6,27.0,54,30.42,10.0,NW,3.5,-,N/A,,Clear,310,2012-12-30 06:15:00
12:35 AM,42.6,27.3,55,30.42,10.0,NW,3.5,-,N/A,,Clear,310,2012-12-30 06:35:00
12:55 AM,42.6,27.3,55,30.42,10.0,NW,3.5,-,N/A,,Clear,320,2012-12-30 06:55:00
1:15 AM,43.0,26.6,52,30.40,10.0,Calm,Calm,-,N/A,,Clear,0,2012-12-30 07:15:00
1:35 AM,42.3,27.5,56,30.40,10.0,NW,3.5,-,N/A,,Clear,320,2012-12-30 07:35:00
1:55 AM,42.1,26.8,55,30.40,10.0,NNW,3.5,-,N/A,,Clear,340,2012-12-30 07:55:00
2:15 AM,42.4,26.4,53,30.39,10.0,NNW,4.6,-,N/A,,Clear,340,2012-12-30 08:15:00
2:35 AM,42.6,26.6,53,30.39,10.0,NNW,3.5,-,N/A,,Clear,340,2012-12-30 08:35:00
2:55 AM,41.5,25.7,53,30.39,10.0,NNW,4.6,-,N/A,,Clear,340,2012-12-30 08:55:00
3:15 AM,42.1,25.5,52,30.39,10.0,NNW,4.6,-,N/A,,Clear,340,2012-12-30 09:15:00
3:35 AM,42.8,23.9,47,30.39,10.0,North,3.5,-,N/A,,Clear,350,2012-12-30 09:35:00
3:55 AM,42.1,23.9,49,30.38,10.0,North,5.8,-,N/A,,Clear,350,2012-12-30 09:55:00
4:15 AM,42.4,23.5,47,30.37,10.0,North,3.5,-,N/A,,Clear,360,2012-12-30 10:15:00
4:35 AM,42.1,23.7,48,30.36,10.0,Calm,Calm,-,N/A,,Clear,0,2012-12-30 10:35:00
4:55 AM,41.5,24.4,51,30.36,10.0,North,5.8,-,N/A,,Clear,360,2012-12-30 10:55:00
5:15 AM,41.5,24.8,51,30.36,10.0,North,3.5,-,N/A,,Clear,10,2012-12-30 11:15:00
5:35 AM,41.5,25.2,52,30.36,10.0,North,3.5,-,N/A,,Clear,360,2012-12-30 11:35:00
5:55 AM,41.2,25.5,54,30.36,10.0,North,4.6,-,N/A,,Clear,360,2012-12-30 11:55:00
6:15 AM,41.4,25.7,54,30.36,10.0,North,3.5,-,N/A,,Clear,360,2012-12-30 12:15:00
6:35 AM,41.9,25.7,53,30.36,10.0,North,4.6,-,N/A,,Clear,10,2012-12-30 12:35:00
6:55 AM,42.6,26.2,52,30.36,10.0,North,4.6,-,N/A,,Clear,360,2012-12-30 12:55:00
7:15 AM,42.8,26.4,52,30.36,10.0,North,4.6,-,N/A,,Clear,360,2012-12-30 13:15:00
7:35 AM,42.8,26.6,53,30.36,10.0,NNE,5.8,-,N/A,,Mostly Cloudy,20,2012-12-30 13:35:00
7:55 AM,43.7,27.3,53,30.36,10.0,NNE,5.8,-,N/A,,Overcast,20,2012-12-30 13:55:00
8:15 AM,44.6,27.5,51,30.36,10.0,NNE,5.8,-,N/A,,Overcast,20,2012-12-30 14:15:00
8:35 AM,45.0,28.4,52,30.36,10.0,North,4.6,-,N/A,,Overcast,360,2012-12-30 14:35:00
8:55 AM,45.5,29.1,53,30.37,10.0,North,3.5,-,N/A,,Mostly Cloudy,360,2012-12-30 14:55:00
9:15 AM,46.9,30.4,53,30.37,10.0,North,4.6,-,N/A,,Scattered Clouds,10,2012-12-30 15:15:00
9:35 AM,48.2,31.5,52,30.37,10.0,North,5.8,-,N/A,,Scattered Clouds,350,2012-12-30 15:35:00
9:55 AM,49.5,32.2,51,30.36,10.0,North,4.6,-,N/A,,Scattered Clouds,360,2012-12-30 15:55:00
10:15 AM,51.3,33.4,51,30.37,10.0,North,5.8,-,N/A,,Scattered Clouds,350,2012-12-30 16:15:00
10:35 AM,53.1,34.7,50,30.36,10.0,North,4.6,-,N/A,,Mostly Cloudy,360,2012-12-30 16:35:00
10:55 AM,54.7,36.0,49,30.35,10.0,North,4.6,-,N/A,,Overcast,10,2012-12-30 16:55:00
11:15 AM,56.5,37.0,48,30.34,10.0,NNE,3.5,-,N/A,,Overcast,20,2012-12-30 17:15:00
11:35 AM,60.1,37.8,44,30.33,10.0,NNE,5.8,-,N/A,,Scattered Clouds,30,2012-12-30 17:35:00
11:55 AM,61.3,39.0,44,30.32,10.0,NNE,4.6,-,N/A,,Clear,30,2012-12-30 17:55:00
12:15 PM,64.8,40.3,41,30.30,10.0,NE,6.9,-,N/A,,Clear,50,2012-12-30 18:15:00
12:35 PM,68.5,42.3,38,30.28,10.0,ENE,8.1,-,N/A,,Clear,70,2012-12-30 18:35:00
12:55 PM,70.9,43.5,37,30.27,10.0,ESE,6.9,16.1,N/A,,Clear,110,2012-12-30 18:55:00
1:15 PM,71.6,43.0,36,30.25,10.0,SSE,8.1,-,N/A,,Mostly Cloudy,150,2012-12-30 19:15:00
1:35 PM,71.8,44.1,37,30.23,10.0,SSE,9.2,-,N/A,,Overcast,160,2012-12-30 19:35:00
1:55 PM,71.1,45.5,40,30.21,10.0,ESE,12.7,17.3,N/A,,Overcast,120,2012-12-30 19:55:00
2:15 PM,70.9,45.9,41,30.20,10.0,SSE,12.7,17.3,N/A,,Overcast,150,2012-12-30 20:15:00
2:35 PM,70.2,46.6,43,30.20,10.0,SE,15.0,19.6,N/A,,Overcast,140,2012-12-30 20:35:00
2:55 PM,69.8,47.1,44,30.19,10.0,SE,12.7,20.7,N/A,,Overcast,140,2012-12-30 20:55:00
3:15 PM,69.4,47.3,45,30.18,10.0,SE,8.1,-,N/A,,Overcast,130,2012-12-30 21:15:00
3:35 PM,70.0,46.0,42,30.18,10.0,SSE,12.7,17.3,N/A,,Overcast,150,2012-12-30 21:35:00
3:55 PM,69.8,46.4,43,30.17,10.0,SE,9.2,-,N/A,,Overcast,140,2012-12-30 21:55:00
4:15 PM,69.1,47.8,47,30.17,10.0,SE,10.4,-,N/A,,Overcast,130,2012-12-30 22:15:00
4:35 PM,68.4,48.2,48,30.18,10.0,ESE,9.2,18.4,N/A,,Overcast,120,2012-12-30 22:35:00
4:55 PM,68.2,48.4,49,30.17,10.0,SE,6.9,19.6,N/A,,Overcast,140,2012-12-30 22:55:00
5:15 PM,68.2,48.6,49,30.17,10.0,SE,9.2,19.6,N/A,,Overcast,140,2012-12-30 23:15:00
5:35 PM,67.8,49.3,51,30.17,10.0,SE,10.4,16.1,N/A,,Overcast,130,2012-12-30 23:35:00
5:55 PM,67.3,50.4,55,30.17,10.0,SE,10.4,16.1,N/A,,Overcast,130,2012-12-30 23:55:00
6:15 PM,67.1,50.5,55,30.17,10.0,SE,10.4,-,N/A,,Overcast,140,2012-12-31 00:15:00
6:35 PM,67.1,51.1,56,30.17,10.0,SSE,8.1,-,N/A,,Overcast,150,2012-12-31 00:35:00
6:55 PM,66.7,51.4,58,30.18,10.0,SE,6.9,-,N/A,,Overcast,140,2012-12-31 00:55:00
7:15 PM,66.7,51.8,59,30.17,10.0,SE,5.8,-,N/A,,Overcast,130,2012-12-31 01:15:00
7:35 PM,66.6,51.8,59,30.17,10.0,ESE,4.6,-,N/A,,Overcast,120,2012-12-31 01:35:00
7:55 PM,66.4,52.3,61,30.16,10.0,SE,5.8,-,N/A,,Overcast,130,2012-12-31 01:55:00
8:15 PM,66.2,52.7,62,30.17,10.0,SE,3.5,-,N/A,,Overcast,130,2012-12-31 02:15:00
8:35 PM,65.3,52.7,64,30.16,10.0,SE,5.8,-,N/A,,Mostly Cloudy,130,2012-12-31 02:35:00
8:55 PM,64.6,52.7,65,30.16,10.0,SE,4.6,-,N/A,,Mostly Cloudy,130,2012-12-31 02:55:00
9:15 PM,64.4,52.7,66,30.16,10.0,SE,4.6,-,N/A,,Overcast,130,2012-12-31 03:15:00
9:35 PM,64.4,52.9,66,30.17,10.0,Calm,Calm,-,N/A,,Overcast,0,2012-12-31 03:35:00
9:55 PM,64.4,52.9,66,30.16,10.0,SE,3.5,-,N/A,,Overcast,130,2012-12-31 03:55:00
10:15 PM,64.2,52.9,67,30.16,10.0,SE,3.5,-,N/A,,Overcast,130,2012-12-31 04:15:00
10:35 PM,64.4,53.1,67,30.15,10.0,SE,4.6,-,N/A,,Overcast,130,2012-12-31 04:35:00
10:55 PM,64.4,53.6,68,30.14,10.0,SE,3.5,-,N/A,,Overcast,140,2012-12-31 04:55:00
11:15 PM,65.5,54.5,68,30.14,10.0,SE,6.9,-,N/A,,Overcast,140,2012-12-31 05:15:00
11:35 PM,67.1,56.3,68,30.13,10.0,SSE,10.4,17.3,N/A,,Overcast,150,2012-12-31 05:35:00
11:55 PM,67.1,56.7,69,30.13,10.0,SSE,8.1,-,N/A,,Overcast,150,2012-12-31 05:55:00